Location: Dötzum
(52.0808°N, 9.8063°E)
Time: 06:49:31
(UTC+00:00)

GP-B - Visible Passes

Search period start: 06 October 2022 00:00
Search period end: 16 October 2022 00:00
Orbit: 630 x 634 km, 89.8° (Epoch: 05 October)

Date Brightness Start Highest point End Pass type
(mag) Time Alt. Az. Time Alt. Az. Time Alt. Az.
06 Oct 5.6 02:22:16 10° ESE 02:25:30 20° ENE 02:28:46 10° NNE visible
06 Oct 3.2 03:58:05 10° SSW 04:02:25 55° W 04:06:48 10° N visible
06 Oct 6.6 17:20:20 10° NW 17:21:20 11° WNW 17:22:20 10° W visible
07 Oct 4.8 02:42:34 10° SE 02:46:32 33° ENE 02:50:29 10° NNE visible
07 Oct 3.8 04:19:49 10° SSW 04:23:48 32° W 04:27:49 10° NNW visible
08 Oct 3.8 03:03:18 10° SSE 03:07:38 55° E 03:11:58 10° N visible
08 Oct 4.4 04:42:00 10° SW 04:45:16 20° WNW 04:48:33 10° NNW visible
09 Oct 6.1 01:50:02 10° E 01:52:12 14° ENE 01:54:23 10° NE visible
09 Oct 3.0 03:24:23 10° S 03:28:48 87° W 03:33:17 10° N visible
10 Oct 5.5 02:09:45 10° ESE 02:13:07 22° ENE 02:16:31 10° NNE visible
10 Oct 3.2 03:46:45 16° SSW 03:50:06 50° W 03:54:27 10° N visible
11 Oct 4.6 02:31:39 19° SE 02:34:09 35° E 02:38:11 10° NNE visible
11 Oct 3.9 04:09:08 19° SW 04:11:29 30° W 04:15:25 10° NNW visible
12 Oct 3.6 02:53:51 39° SE 02:55:15 60° E 02:59:38 10° N visible
12 Oct 4.5 04:31:20 16° WSW 04:32:57 19° WNW 04:36:06 10° NNW visible
13 Oct 5.9 01:38:28 13° E 01:39:47 15° ENE 01:42:12 10° NE visible
13 Oct 2.9 03:15:56 68° SSW 03:16:27 80° W 03:20:55 10° N visible
13 Oct 5.0 04:53:25 10° W 04:54:32 11° WNW 04:55:57 10° NW visible
14 Oct 5.3 02:00:27 23° E 02:00:43 23° ENE 02:04:14 10° NNE visible
14 Oct 3.3 03:37:55 46° WNW 03:37:55 46° WNW 03:42:03 10° NNW visible
15 Oct 4.5 02:22:22 36° ENE 02:22:22 36° ENE 02:25:51 10° NNE visible
15 Oct 4.1 03:59:49 27° WNW 03:59:49 27° WNW 04:02:58 10° NNW visible
